Other Public Products
Issued by NWS Grand Forks, ND

Home | Current Version | Previous Version | Graphics & Text | Print | Product List | Glossary On
Versions: 1 2 3 4 5 6 7 8 9 10 11 12 13 14 15 16 17 18 19 20 21 22 23 24 25 26 27 28 29 30 31 32 33 34 35 36 37 38 39 40 41 42 43 44 45 46 47 48 49 50
000
FPUS83 KFGF 292110
OPUFGF
PRAIRIE TO PINES WEATHER ROUNDUP
NATIONAL WEATHER SERVICE EASTERN NORTH DAKOTA/GRAND FORKS ND
400 PM CDT WED MAR 29 2017

 **SATELLITE DATA USED TO AUGMENT SKY COVER AT AUTOMATED STATIONS**
 *****  WEATHER ACROSS EASTERN NORTH DAKOTA  *****

CITY           SKY/WX    TMP DP  RH WIND       PRES   REMARKS
GRAND FORKS    FAIR      61  47  59 S14       30.04F
GRAND FORKS AF FAIR      60  44  54 SW10      30.04F
GRAND CITY NWS NOT AVBL
BUXTON         NOT AVBL
DEVILS LAKE    CLOUDY    58  38  47 S16       30.00F
FARGO          FAIR      61  41  47 S15G22    30.07F
WAHPETON ARPT  FAIR      57  34  41 SE13G18   30.09F
$$

 *****  WEATHER ACROSS CENTRAL AND WESTERN NORTH DAKOTA  *****

CITY           SKY/WX    TMP DP  RH WIND       PRES   REMARKS
JAMESTOWN      FAIR      62  34  35 S16       30.01F
BISMARCK       CLOUDY    61  38  42 S15G25    29.98F
MINOT          PTSUNNY   61  38  42 S18G24    29.92F
MINOT AFB      FAIR      57  42  56 SW12      29.91F
GARRISON         N/A     59  40  49 S13       29.93F
WILLISTON      FAIR      62  33  33 W16G23    29.91F
DICKINSON      CLOUDY    62  28  27 SW16      29.91F
HETTINGER      PTSUNNY   61  33  35 SW12      29.97F
$$

 *****  OTHER OBSERVATIONS NORTHEAST NORTH DAKOTA  *****

CITY           SKY/WX    TMP DP  RH WIND       PRES   REMARKS
WALHALLA       NOT AVBL
LANGDON        FAIR      54  46  76 S15       30.00F
CAVALIER       FAIR      57  45  62 S12       30.02F
GRAFTON        FAIR      61  45  55 S15G22    30.05F
CANDO          NOT AVBL
FORT TOTTEN      N/A     58  37  45 S10       29.95S
ROLLA          FAIR      48  45  87 S13       29.98S
RUGBY          NOT AVBL
 ***** THE ABOVE OBSERVATIONS ARE NON NWS ARE NOT QUALITY
        CONTROLLED AND MAY MIS-REPORT RAIN FOR SNOW...
$$

 *****  OTHER OBSERVATIONS SOUTHEAST NORTH DAKOTA *****

CITY           SKY/WX    TMP DP  RH WIND       PRES   REMARKS
COOPERSTOWN    FAIR      57  39  51 S18       30.04F
VALLEY CITY    FAIR      61  32  33 S15G21    30.04F
OAKES          NOT AVBL
GWINNER        CLEAR     61  32  33 MISG      30.05F
SHEYENNE NWR     N/A     63  32  31 S13       29.95S
BUFFALO        NOT AVBL
WYNDMERE       NOT AVBL
 ***** THE ABOVE OBSERVATIONS ARE NON NWS ARE NOT QUALITY
       CONTROLLED AND MAY MIS-REPORT RAIN FOR SNOW...
$$

  *****  WEATHER ACROSS NORTHERN MINNESOTA  *****

CITY           SKY/WX    TMP DP  RH WIND       PRES   REMARKS
FLAG ISLAND    FAIR      46  28  49 SE6       30.08F
WARROAD        FAIR      61  43  51 S12       30.08F
ROSEAU         FAIR      61  43  51 S12       30.07F
HALLOCK        FAIR      57  48  72 S10       30.05F
THF RVR FALLS  FAIR      60  35  39 SW15      30.08F
HALSTAD          N/A     60  39  46 S17         N/A
FOSSTON        FAIR      61  30  31 S16       30.09F
BAUDETTE       FAIR      60  33  36 SE14      30.09F
WASKISH        FAIR      59  34  38 S9        30.12F
CROOKSTON      FAIR      61  39  44 S15       30.07F
$$
  *****  WEATHER ACROSS CENTRAL AND WEST MINNESOTA  *****

CITY           SKY/WX    TMP DP  RH WIND       PRES   REMARKS
BEMIDJI        FAIR      55  32  41 E13       30.12F
PARK RAPIDS    FAIR      56  31  38 S13       30.12F
WADENA         FAIR      55  32  41 S8        30.13F
DETROIT LAKES  FAIR      57  32  38 S12G17    30.11F
MOORHEAD       FAIR      59  39  47 S12G18    30.09F
FERGUS FALLS   FAIR      57  36  44 S14       30.13F
ELBOW LAKE     FAIR      57  33  40 SE16      30.12F
MORRIS MN      FAIR      55  36  47 SE15      30.12R
STAPLES        FAIR      54  30  40 E7        30.14F
WHEATON        FAIR      57  34  41 SE14G20   30.11F
$$
  *****  WEATHER ELSEWHERE ACROSS MINNESOTA  *****

CITY           SKY/WX    TMP DP  RH WIND       PRES   REMARKS
DULUTH         FAIR      38  31  76 E12       30.23F
INTRNTL FALLS  FAIR      53  30  41 SE14      30.15F
ELY            FAIR      45  27  49 SE10      30.23F
CLOQUET        FAIR      36  30  80 E10       30.23F
BRAINERD       FAIR      49  33  54 E6        30.17F
HIBBING        FAIR      45  30  55 SE10      30.20F
ALEXANDRIA     FAIR      54  27  35 SE14G21   30.14S
SAINT CLOUD    FAIR      51  34  52 SE9       30.16F
MINNEAPOLIS    CLOUDY    49  35  58 SE16      30.18F
$$

  *****  WEATHER ACROSS SOUTH DAKOTA  *****

CITY           SKY/WX    TMP DP  RH WIND       PRES   REMARKS
SIOUX FALLS    LGT RAIN  47  39  74 E24G33    30.05F
BROOKINGS      PTSUNNY   49  37  63 E17G24    30.07F
WATERTOWN      PTSUNNY   54  33  45 E9        30.07F
HURON          CLOUDY    55  36  48 SE13      30.05F
SISSETON         N/A     58  37  45 S15       30.07F
ABERDEEN       FAIR      60  31  33 SE12      30.04F
MITCHELL       CLOUDY    53  36  52 E20       30.07F
PIERRE         PTSUNNY   61  33  35 SE10      30.00F
MOBRIDGE       FAIR      64  30  27 S12       29.98F
RAPID CITY     FAIR      55  38  52 VRB7      30.00F
$$

  *****  SOME WEATHER IN NEARBY STATES *****

CITY           SKY/WX    TMP DP  RH WIND       PRES   REMARKS
GLASGOW MT     FAIR      58  27  30 W6        29.90F
GREAT FALLS MT PTSUNNY   52  32  46 SW16G26   29.88F
CHEYENNE WY    FAIR      51  24  34 NW16G29   30.00F
SCOTTSBLUFF NE PTSUNNY   55  36  48 N15       29.98F
OMAHA NE       RAIN      43  38  82 N17       29.89F
DES MOINES IA  LGT RAIN  46  43  89 E20G28    29.89S FOG
DAVENPORT IA   LGT RAIN  46  41  82 E18G28    29.98F
CHICAGO IL     CLOUDY    47  34  60 NE16      30.15F
EAU CLAIRE WI  CLOUDY    49  33  54 SE10      30.19F
LA CROSSE WI   CLOUDY    47  37  68 CALM      30.18F
$$

  *****  SOME NATIONAL WEATHER *****

CITY           SKY/WX    TMP DP  RH WIND       PRES   REMARKS
LA GUARDIA NY  FAIR      58  28  32 NW9G21    30.04R
RALEIGH NC     PTSUNNY   71  51  49 E6        30.05S
ATLANTA GA     FAIR      82  55  39 VRB6      30.00F
NEW ORLEANS LA FAIR      81  66  60 SE12      29.91F
OKLAHOMA CITY  PTSUNNY   60  48  64 W16       29.72R
ALBUQUERQUE NM PTSUNNY   59  34  39 N10       29.97F
SALT LAKE CITY FAIR      56  32  40 VRB7      30.18F
LOS ANGELES CA FAIR      72  52  49 W10       30.04S
BOISE ID       PTSUNNY   60  35  39 SE7       30.07F
SEATTLE WA     LGT RAIN  53  50  89 SW20G28   29.86R
$$

*** WEATHER ACROSS MANITOBA...SASKATCHEWAN AND ONTARIO ***
                ***ONTARIO***

CITY           SKY/WX    TMP DP  RH WIND       PRES   REMARKS
GERALDTON      MOSUNNY   39  18  41 S8        30.34F
THUNDER BAY    CLOUDY    36  23  60 E10       30.36F
SIOUX LOOKOUT  CLOUDY    46  25  42 S9        30.20F
TORONTO        PTSUNNY   45  25  45 SE8       30.27R
BIG TROUT LK   CLOUDY    36  21  55 S13       30.26F
PICKLE LAKE    PTSUNNY   39  19  45 SE9       30.25F
DRYDEN         PTSUNNY   48  27  43 SE13G21   30.16F
KENORA         NOT AVBL
$$
                *** MANITOBA***

CITY           SKY/WX    TMP DP  RH WIND       PRES   REMARKS
BRANDON        CLOUDY    45  41  87 S6        29.96F
DAUPHIN        LGT RAIN  39  36  87 VRB2      29.93F
ISLAND LAKE    CLOUDY    37  27  65 SE8       30.10
PILOT MOUND      N/A     45  41  87 S12         N/A
THE PAS        CLOUDY    36  30  80 SE13      29.92F
THOMPSON       CLOUDY    41  19  42 S7        30.04F
WINNIPEG       CLOUDY    54  45  71 S16       30.01F
LYNN LAKE      CLOUDY    41  27  56 S8G17     29.96F
CHURCHILL      MOSUNNY   27  18  69 S12       30.19F WCI  16
GILLAM         MOSUNNY   43  19  39 S7        30.13F
$$
                ***SASKATCHEWAN***

CITY           SKY/WX    TMP DP  RH WIND       PRES   REMARKS
ESTEVAN        PTSUNNY   57  30  35 SW18      29.87F
KINDERSLEY     PTSUNNY   57  28  33 CALM      29.78F
LLOYDMINSTER   CLOUDY    39  37  93 NW3       29.82F FOG
PRINCE ALBERT  CLOUDY    39  34  81 NE5       29.83F
REGINA         MOSUNNY   59  30  33 SW13G23   29.80F
YORKTON        SUNNY     46  41  81 S9G17     29.83F


USA.gov is the U.S. government's official web portal to all federal, state and local government web resources and services.